Fremont, MI

9:16 PM EST on November 16, 2019 (GMT -0500)
Fremont

Weather History for KFFX - July, 2019

Change the Weather History Date:

Thursday, July 25, 2019

  Actual Average (WUND) Record (WUND)
Temperature  
Mean Temperature 68 °F -  
Max Temperature 81 °F - - (-1)
Min Temperature 55 °F - - (-1)
Cooling Degree Days 3    
Growing Degree Days 18 (Base 50)    
Moisture  
Dew Point 56 °F    
Average Humidity 67    
Maximum Humidity 100    
Minimum Humidity 40    
Precipitation  
Precipitation 0.00 in - - ()
Sea Level Pressure  
Sea Level Pressure 30.17 in    
Wind  
Wind Speed 3 mph (WSW)    
Max Wind Speed 12 mph    
Max Gust Speed 16 mph    
Visibility 10 miles    
Events      
Averages and records for this station are not official NWS values.
T = Trace of Precipitation, MM = Missing Value Source: NWS Daily Summary

Daily Weather History Graph

Daily Weather History Graph

Search for Another Location

Airport or City:

Astronomy

Jul. 25, 2019 Rise Set
Actual Time 6:26 AM EDT 9:14 PM EDT
Civil Twilight 5:52 AM EDT 9:47 PM EDT
Nautical Twilight 5:10 AM EDT 10:29 PM EDT
Astronomical Twilight 4:21 AM EDT 11:18 PM EDT
Moon 1:16 AM EDT (7/25) 2:50 PM EDT (7/25)
Length of Visible Light 15h 54m
Length of Day
14h 48m
Last Quarter, 44% of the Moon is Illuminated
Jul 25
Last Quarter
Jul 31
New
Aug 7
First Quarter
Aug 15
Full
Aug 23
Last Quarter

Hourly Weather History & Observations

Time (EDT) Temp. Heat Index Dew Point Humidity Pressure Visibility Wind Dir Wind Speed Gust Speed Precip Events Conditions
12:19 AM 61.2 °F - 52.9 °F 74% 30.14 in 10.0 mi Calm Calm - N/A   Clear
12:37 AM 60.1 °F - 53.2 °F 78% 30.13 in 10.0 mi Calm Calm - N/A   Clear
12:55 AM 58.8 °F - 54.0 °F 84% 30.14 in 10.0 mi Calm Calm - N/A   Clear
1:15 AM 58.5 °F - 55.8 °F 91% 30.15 in 10.0 mi Calm Calm - N/A   Clear
1:35 AM 58.1 °F - 55.8 °F 92% 30.15 in 10.0 mi Calm Calm - N/A   Clear
1:58 AM 57.6 °F - 55.9 °F 94% 30.14 in 10.0 mi SE 3.5 mph - N/A   Clear
2:16 AM 57.9 °F - 56.5 °F 95% 30.14 in 10.0 mi Calm Calm - N/A   Clear
2:35 AM 57.6 °F - 56.3 °F 96% 30.15 in 10.0 mi Calm Calm - N/A   Clear
2:36 AM 57.7 °F - 56.3 °F 95% 30.15 in 10.0 mi Calm Calm - N/A   Clear
2:55 AM 57.2 °F - 56.1 °F 96% 30.14 in 10.0 mi Calm Calm - N/A   Clear
2:56 AM 57.2 °F - 56.1 °F 96% 30.14 in 10.0 mi Calm Calm - N/A   Clear
3:19 AM 56.8 °F - 56.5 °F 99% 30.14 in 10.0 mi Calm Calm - N/A   Clear
3:37 AM 55.8 °F - 55.6 °F 99% 30.14 in 10.0 mi Calm Calm - N/A   Clear
3:55 AM 56.3 °F - 56.3 °F 100% 30.14 in 10.0 mi Calm Calm - N/A   Clear
3:56 AM 56.3 °F - 56.3 °F 100% 30.14 in 10.0 mi Calm Calm - N/A   Clear
4:15 AM 55.8 °F - 55.8 °F 100% 30.14 in 10.0 mi Calm Calm - N/A   Clear
4:16 AM 55.9 °F - 55.8 °F 99% 30.14 in 10.0 mi Calm Calm - N/A   Clear
4:35 AM 56.3 °F - 56.3 °F 100% 30.15 in 10.0 mi Calm Calm - N/A   Clear
4:40 AM 55.9 °F - 55.9 °F 100% 30.15 in 10.0 mi Calm Calm - N/A   Clear
4:58 AM 56.3 °F - 56.3 °F 100% 30.15 in 10.0 mi Calm Calm - N/A   Clear
5:16 AM 55.9 °F - 55.9 °F 100% 30.15 in 10.0 mi Calm Calm - N/A   Clear
5:35 AM 55.4 °F - 55.4 °F 100% 30.16 in 10.0 mi Calm Calm - N/A   Clear
5:55 AM 55.2 °F - 55.2 °F 100% 30.16 in 10.0 mi Calm Calm - N/A   Clear
6:19 AM 55.4 °F - 55.4 °F 100% 30.16 in 10.0 mi Calm Calm - N/A   Clear
6:37 AM 55.4 °F - 55.4 °F 100% 30.17 in 10.0 mi Calm Calm - N/A   Clear
6:55 AM 55.8 °F - 55.8 °F 100% 30.18 in 10.0 mi Calm Calm - N/A   Clear
7:15 AM 55.9 °F - 55.9 °F 100% 30.18 in 10.0 mi Calm Calm - N/A   Clear
7:35 AM 57.4 °F - 57.0 °F 99% 30.19 in 10.0 mi Calm Calm - N/A   Clear
7:40 AM 57.9 °F - 57.7 °F 99% 30.19 in 10.0 mi Calm Calm - N/A   Clear
7:58 AM 59.4 °F - 59.0 °F 99% 30.19 in 10.0 mi Calm Calm - N/A   Clear
8:16 AM 60.8 °F - 59.9 °F 97% 30.20 in 10.0 mi Calm Calm - N/A   Clear
8:35 AM 61.9 °F - 60.6 °F 96% 30.20 in 10.0 mi Calm Calm - N/A   Clear
8:55 AM 64.6 °F - 62.1 °F 92% 30.20 in 10.0 mi SW 3.5 mph - N/A   Clear
9:19 AM 68.7 °F - 59.2 °F 72% 30.20 in 10.0 mi WSW 6.9 mph - N/A   Clear
9:37 AM 70.5 °F - 57.2 °F 63% 30.20 in 10.0 mi WSW 6.9 mph - N/A   Clear
9:55 AM 71.6 °F - 55.9 °F 58% 30.20 in 10.0 mi WSW 6.9 mph - N/A   Clear
10:15 AM 73.4 °F - 55.0 °F 52% 30.20 in 10.0 mi WSW 8.1 mph - N/A   Clear
10:16 AM 73.4 °F - 55.0 °F 52% 30.20 in 10.0 mi WSW 8.1 mph - N/A   Clear
10:35 AM 74.8 °F - 54.3 °F 49% 30.20 in 10.0 mi WSW 10.4 mph - N/A   Clear
10:58 AM 76.3 °F - 54.0 °F 46% 30.20 in 10.0 mi SW 9.2 mph - N/A   Clear
11:16 AM 76.3 °F - 53.1 °F 44% 30.20 in 10.0 mi WSW 9.2 mph - N/A   Clear
11:35 AM 77.2 °F - 53.1 °F 43% 30.20 in 10.0 mi WSW 10.4 mph - N/A   Clear
11:36 AM 77.2 °F - 52.9 °F 43% 30.20 in 10.0 mi WSW 10.4 mph - N/A   Clear
11:55 AM 77.7 °F - 52.7 °F 42% 30.20 in 10.0 mi West 11.5 mph - N/A   Clear
11:56 AM 77.5 °F - 52.7 °F 42% 30.20 in 10.0 mi West 10.4 mph - N/A   Clear
12:19 PM 78.8 °F - 53.4 °F 41% 30.20 in 10.0 mi WSW 10.4 mph - N/A   Clear
12:36 PM 79.0 °F - 53.2 °F 41% 30.19 in 10.0 mi SW 9.2 mph - N/A   Clear
12:55 PM 79.7 °F - 53.2 °F 40% 30.19 in 10.0 mi West 6.9 mph - N/A   Clear
12:56 PM 79.7 °F - 53.2 °F 40% 30.19 in 10.0 mi West 5.8 mph - N/A   Clear
1:15 PM 80.1 °F 80.0 °F 53.6 °F 40% 30.19 in 10.0 mi SW 9.2 mph - N/A   Clear
1:16 PM 80.1 °F 80.0 °F 53.8 °F 40% 30.19 in 10.0 mi SW 8.1 mph - N/A   Clear
1:35 PM 79.9 °F - 53.8 °F 40% 30.19 in 10.0 mi WSW 5.8 mph - N/A   Clear
1:58 PM 80.6 °F 80.4 °F 54.9 °F 41% 30.18 in 10.0 mi West 6.9 mph - N/A   Clear
2:16 PM 80.6 °F 80.5 °F 55.4 °F 42% 30.18 in 10.0 mi WSW 9.2 mph - N/A   Clear
2:55 PM 81.5 °F 81.4 °F 56.8 °F 43% 30.18 in 10.0 mi SW 8.1 mph - N/A   Clear
3:19 PM 81.7 °F 81.5 °F 57.2 °F 43% 30.18 in 10.0 mi WSW 8.1 mph - N/A   Clear
3:37 PM 81.7 °F 81.5 °F 56.8 °F 43% 30.18 in 10.0 mi WSW 6.9 mph - N/A   Clear
3:55 PM 81.5 °F 81.3 °F 56.3 °F 42% 30.18 in 10.0 mi West 8.1 mph - N/A   Clear
3:56 PM 81.3 °F 81.1 °F 56.3 °F 42% 30.18 in 10.0 mi WSW 8.1 mph - N/A   Clear
4:15 PM 81.3 °F 81.1 °F 56.5 °F 42% 30.18 in 10.0 mi West 9.2 mph - N/A   Clear
4:16 PM 81.3 °F 81.1 °F 56.5 °F 42% 30.18 in 10.0 mi West 9.2 mph - N/A   Clear
4:35 PM 81.3 °F 81.1 °F 56.5 °F 42% 30.18 in 10.0 mi WSW 10.4 mph - N/A   Clear
4:58 PM 81.5 °F 81.5 °F 57.6 °F 44% 30.17 in 10.0 mi WSW 9.2 mph - N/A   Clear
5:16 PM 80.4 °F 80.7 °F 57.0 °F 45% 30.17 in 10.0 mi SW 8.1 mph - N/A   Clear
5:35 PM 79.9 °F - 55.8 °F 43% 30.17 in 10.0 mi SW 11.5 mph 16.1 mph N/A   Clear
5:36 PM 79.9 °F - 55.8 °F 43% 30.17 in 10.0 mi SW 11.5 mph 16.1 mph N/A   Clear
5:55 PM 79.7 °F - 55.4 °F 43% 30.17 in 10.0 mi WSW 9.2 mph - N/A   Clear
6:19 PM 79.0 °F - 54.5 °F 43% 30.17 in 10.0 mi SW 10.4 mph - N/A   Clear
6:36 PM 78.3 °F - 53.1 °F 41% 30.17 in 10.0 mi SW 9.2 mph - N/A   Clear
6:55 PM 77.7 °F - 52.0 °F 41% 30.16 in 10.0 mi WSW 8.1 mph - N/A   Clear
6:56 PM 77.5 °F - 52.0 °F 41% 30.16 in 10.0 mi WSW 6.9 mph - N/A   Clear
7:15 PM 77.0 °F - 52.7 °F 43% 30.16 in 10.0 mi WSW 6.9 mph - N/A   Clear
7:16 PM 77.0 °F - 52.5 °F 42% 30.16 in 10.0 mi SW 6.9 mph - N/A   Clear
7:35 PM 76.5 °F - 53.1 °F 44% 30.17 in 10.0 mi WSW 4.6 mph - N/A   Clear
7:40 PM 76.3 °F - 53.6 °F 45% 30.17 in 10.0 mi SW 4.6 mph - N/A   Clear
7:58 PM 75.6 °F - 54.5 °F 48% 30.17 in 10.0 mi SW 4.6 mph - N/A   Clear
8:16 PM 74.7 °F - 54.7 °F 50% 30.16 in 10.0 mi SSW 5.8 mph - N/A   Clear
8:35 PM 72.7 °F - 55.9 °F 56% 30.16 in 10.0 mi SSW 4.6 mph - N/A   Clear
8:36 PM 72.7 °F - 55.9 °F 56% 30.16 in 10.0 mi SSW 4.6 mph - N/A   Clear
8:55 PM 71.4 °F - 56.1 °F 58% 30.16 in 10.0 mi SSW 3.5 mph - N/A   Clear
8:56 PM 71.2 °F - 56.3 °F 59% 30.16 in 10.0 mi SSW 3.5 mph - N/A   Clear
9:19 PM 69.8 °F - 55.6 °F 61% 30.17 in 10.0 mi Calm Calm - N/A   Clear
9:37 PM 68.4 °F - 55.8 °F 64% 30.17 in 10.0 mi Calm Calm - N/A   Clear
9:55 PM 68.2 °F - 55.6 °F 64% 30.18 in 10.0 mi Calm Calm - N/A   Clear
10:15 PM 65.8 °F - 55.8 °F 70% 30.18 in 10.0 mi Calm Calm - N/A   Clear
10:35 PM 64.4 °F - 56.1 °F 74% 30.19 in 10.0 mi Calm Calm - N/A   Clear
10:40 PM 64.4 °F - 56.1 °F 74% 30.19 in 10.0 mi Calm Calm - N/A   Clear
10:58 PM 63.5 °F - 56.3 °F 77% 30.19 in 10.0 mi Calm Calm - N/A   Clear
11:16 PM 63.0 °F - 57.9 °F 84% 30.19 in 10.0 mi Calm Calm - N/A   Clear
11:35 PM 61.0 °F - 57.6 °F 88% 30.19 in 10.0 mi Calm Calm - N/A   Clear
11:55 PM 61.0 °F - 56.7 °F 86% 30.19 in 10.0 mi Calm Calm - N/A   Clear
11:56 PM 61.0 °F - 56.8 °F 86% 30.19 in 10.0 mi Calm Calm - N/A   Clear